• Em Portugal
  • Lista de países
  • Para 7 dias
  • Temperatura da água
  • Mapas de satélite
  • Mapa do tempo
  • Widgets de tempo
  • user-avatar
    Iniciar Sessão

    Previsão horária em Keetmanshoop

    Hoje, 19 Fevereiro, Segunda-feira

    Tempo Temperatura Precipitação Vento Pressão Humidade
    00:00 +25°C° 0 mm 5 m/s 677 mmHg 32%
    01:00 +23°C° 0 mm 5 m/s 677 mmHg 38%
    02:00 +22°C° 0 mm 4 m/s 677 mmHg 38%
    03:00 +22°C° 0 mm 3 m/s 677 mmHg 39%
    04:00 +21°C° 0 mm 2 m/s 677 mmHg 39%
    05:00 +21°C° 0 mm 2 m/s 677 mmHg 38%
    06:00 +22°C° 0 mm 1 m/s 677 mmHg 37%
    07:00 +22°C° 0 mm 1 m/s 678 mmHg 36%
    08:00 +24°C° 0 mm 1 m/s 678 mmHg 31%
    09:00 +26°C° 0 mm 1 m/s 678 mmHg 27%
    10:00 +28°C° 0 mm 1 m/s 678 mmHg 22%
    11:00 +29°C° 0 mm 1 m/s 678 mmHg 19%
    12:00 +31°C° 0 mm 2 m/s 678 mmHg 16%
    13:00 +34°C° 0 mm 2 m/s 678 mmHg 13%
    14:00 +34°C° 0 mm 2 m/s 677 mmHg 12%
    15:00 +35°C° 0 mm 2 m/s 677 mmHg 11%
    16:00 +36°C° 0 mm 2 m/s 677 mmHg 10%
    17:00 +36°C° 0 mm 2 m/s 677 mmHg 11%
    18:00 +35°C° 0 mm 3 m/s 677 mmHg 11%
    19:00 +35°C° 0 mm 3 m/s 677 mmHg 11%
    20:00 +34°C° 0 mm 4 m/s 678 mmHg 12%
    21:00 +33°C° 0 mm 5 m/s 678 mmHg 12%
    22:00 +32°C° 0 mm 5 m/s 678 mmHg 13%
    23:00 +30°C° 0 mm 5 m/s 678 mmHg 15%

    Amanhã, 20 Fevereiro, Terça-feira

    Tempo Temperatura Precipitação Vento Pressão Humidade
    00:00 +29°C° 0 mm 4 m/s 678 mmHg 17%
    01:00 +27°C° 0 mm 4 m/s 677 mmHg 19%
    02:00 +27°C° 0 mm 3 m/s 677 mmHg 22%
    03:00 +26°C° 0 mm 3 m/s 677 mmHg 25%
    04:00 +25°C° 0 mm 3 m/s 677 mmHg 29%
    05:00 +25°C° 0 mm 3 m/s 677 mmHg 30%
    06:00 +25°C° 0 mm 3 m/s 678 mmHg 31%
    07:00 +26°C° 0 mm 3 m/s 678 mmHg 32%
    08:00 +27°C° 0 mm 2 m/s 678 mmHg 27%
    09:00 +29°C° 0 mm 2 m/s 679 mmHg 23%
    10:00 +31°C° 0 mm 2 m/s 679 mmHg 18%
    11:00 +32°C° 0 mm 2 m/s 679 mmHg 16%
    12:00 +35°C° 0 mm 2 m/s 678 mmHg 14%
    13:00 +36°C° 0 mm 2 m/s 678 mmHg 12%
    14:00 +37°C° 0 mm 2 m/s 677 mmHg 11%
    15:00 +37°C° 0 mm 2 m/s 677 mmHg 11%
    16:00 +38°C° 0 mm 2 m/s 676 mmHg 10%
    17:00 +37°C° 0 mm 3 m/s 676 mmHg 11%
    18:00 +37°C° 0 mm 3 m/s 677 mmHg 11%
    19:00 +36°C° 0 mm 3 m/s 677 mmHg 12%
    20:00 +35°C° 0 mm 4 m/s 677 mmHg 14%
    21:00 +34°C° 0 mm 6 m/s 677 mmHg 16%
    22:00 +33°C° 0 mm 7 m/s 678 mmHg 17%
    23:00 +32°C° 0 mm 6 m/s 677 mmHg 19%

    Depois de amanhã, 21 Fevereiro, Quarta-feira

    Tempo Temperatura Precipitação Vento Pressão Humidade
    00:00 +30°C° 0 mm 6 m/s 677 mmHg 21%
    01:00 +29°C° 0 mm 5 m/s 676 mmHg 23%
    02:00 +29°C° 0 mm 5 m/s 676 mmHg 26%
    03:00 +28°C° 0 mm 4 m/s 676 mmHg 28%
    04:00 +27°C° 0 mm 4 m/s 676 mmHg 31%
    05:00 +27°C° 0 mm 3 m/s 676 mmHg 32%
    06:00 +27°C° 0 mm 3 m/s 677 mmHg 33%
    07:00 +27°C° 0 mm 2 m/s 678 mmHg 33%
    08:00 +29°C° 0 mm 2 m/s 678 mmHg 29%
    09:00 +30°C° 0 mm 2 m/s 678 mmHg 24%
    10:00 +32°C° 0 mm 2 m/s 678 mmHg 19%
    11:00 +35°C° 0 mm 2 m/s 678 mmHg 16%
    12:00 +36°C° 0 mm 2 m/s 677 mmHg 14%
    13:00 +38°C° 0 mm 2 m/s 677 mmHg 12%
    14:00 +38°C° 0 mm 2 m/s 676 mmHg 11%
    15:00 +38°C° 0 mm 2 m/s 676 mmHg 10%
    16:00 +39°C° 0 mm 2 m/s 675 mmHg 10%
    17:00 +38°C° 0 mm 3 m/s 675 mmHg 10%
    18:00 +38°C° 0 mm 3 m/s 676 mmHg 11%
    19:00 +38°C° 0 mm 4 m/s 676 mmHg 11%
    20:00 +37°C° 0 mm 4 m/s 676 mmHg 13%
    21:00 +36°C° 0 mm 5 m/s 676 mmHg 14%
    22:00 +35°C° 0 mm 5 m/s 676 mmHg 16%
    23:00 +34°C° 0 mm 5 m/s 676 mmHg 17%

    22 Fevereiro, Quinta-feira

    Tempo Temperatura Precipitação Vento Pressão Humidade
    00:00 +33°C° 0 mm 4 m/s 675 mmHg 18%
    01:00 +33°C° 0 mm 4 m/s 675 mmHg 19%
    02:00 +32°C° 0 mm 4 m/s 675 mmHg 22%
    03:00 +30°C° 0 mm 3 m/s 675 mmHg 25%
    04:00 +29°C° 0 mm 3 m/s 674 mmHg 28%
    05:00 +29°C° 0 mm 3 m/s 675 mmHg 27%
    06:00 +29°C° 0 mm 2 m/s 675 mmHg 27%
    07:00 +29°C° 0 mm 2 m/s 676 mmHg 26%
    08:00 +31°C° 0 mm 2 m/s 676 mmHg 22%
    09:00 +34°C° 0 mm 3 m/s 676 mmHg 18%
    10:00 +36°C° 0 mm 3 m/s 677 mmHg 14%
    11:00 +37°C° 0 mm 3 m/s 676 mmHg 12%
    12:00 +38°C° 0 mm 2 m/s 676 mmHg 11%
    13:00 +39°C° 0 mm 2 m/s 675 mmHg 9%
    14:00 +39°C° 0 mm 2 m/s 675 mmHg 9%
    15:00 +40°C° 0 mm 2 m/s 674 mmHg 9%
    16:00 +40°C° 0 mm 3 m/s 674 mmHg 8%
    17:00 +40°C° 0 mm 3 m/s 674 mmHg 9%
    18:00 +40°C° 0 mm 4 m/s 674 mmHg 10%
    19:00 +38°C° 0 mm 4 m/s 675 mmHg 11%
    20:00 +37°C° 0 mm 4 m/s 675 mmHg 14%
    21:00 +36°C° 0 mm 5 m/s 675 mmHg 18%
    22:00 +35°C° 0 mm 5 m/s 675 mmHg 21%
    23:00 +34°C° 0 mm 5 m/s 675 mmHg 25%

    23 Fevereiro, Sexta-feira

    Tempo Temperatura Precipitação Vento Pressão Humidade
    00:00 +33°C° 0 mm 4 m/s 675 mmHg 28%
    01:00 +32°C° 0 mm 4 m/s 675 mmHg 31%
    02:00 +32°C° 0 mm 4 m/s 675 mmHg 34%
    03:00 +30°C° 0 mm 4 m/s 675 mmHg 36%
    04:00 +29°C° 0 mm 4 m/s 675 mmHg 38%
    05:00 +29°C° 0 mm 5 m/s 675 mmHg 40%
    06:00 +29°C° 0 mm 5 m/s 675 mmHg 41%
    07:00 +29°C° 0 mm 5 m/s 676 mmHg 42%
    08:00 +30°C° 0 mm 5 m/s 676 mmHg 38%
    09:00 +33°C° 0 mm 4 m/s 676 mmHg 34%
    10:00 +35°C° 0 mm 4 m/s 676 mmHg 30%
    11:00 +36°C° 0 mm 3 m/s 676 mmHg 27%
    12:00 +37°C° 0 mm 2 m/s 675 mmHg 24%
    13:00 +38°C° 0 mm 2 m/s 675 mmHg 22%
    14:00 +37°C° 0 mm 1 m/s 674 mmHg 20%
    15:00 +37°C° 0 mm 1 m/s 674 mmHg 19%
    16:00 +37°C° 0 mm 1 m/s 674 mmHg 18%
    17:00 +38°C° 0 mm 2 m/s 674 mmHg 19%
    18:00 +38°C° 0 mm 2 m/s 674 mmHg 19%
    19:00 +37°C° 0 mm 3 m/s 675 mmHg 20%
    20:00 +36°C° 0 mm 4 m/s 675 mmHg 22%
    21:00 +35°C° 0 mm 5 m/s 675 mmHg 24%
    22:00 +34°C° 0 mm 6 m/s 675 mmHg 26%
    23:00 +33°C° 0 mm 6 m/s 675 mmHg 27%

    24 Fevereiro, Sábado

    Tempo Temperatura Precipitação Vento Pressão Humidade
    00:00 +33°C° 0 mm 5 m/s 675 mmHg 28%
    01:00 +32°C° 0 mm 4 m/s 675 mmHg 29%
    02:00 +32°C° 0 mm 4 m/s 675 mmHg 30%
    03:00 +30°C° 0 mm 3 m/s 675 mmHg 31%
    04:00 +30°C° 0 mm 3 m/s 675 mmHg 33%
    05:00 +30°C° 0,4 mm 3 m/s 675 mmHg 34%
    06:00 +29°C° 0,4 mm 3 m/s 675 mmHg 35%
    07:00 +29°C° 0,4 mm 3 m/s 675 mmHg 36%
    08:00 +29°C° 0 mm 2 m/s 675 mmHg 36%
    09:00 +30°C° 0 mm 2 m/s 675 mmHg 35%
    10:00 +31°C° 0 mm 2 m/s 675 mmHg 35%
    11:00 +32°C° 0 mm 2 m/s 675 mmHg 31%
    12:00 +34°C° 0 mm 1 m/s 675 mmHg 28%
    13:00 +35°C° 0 mm 1 m/s 674 mmHg 25%
    14:00 +36°C° 0 mm 2 m/s 674 mmHg 24%
    15:00 +36°C° 0 mm 3 m/s 674 mmHg 22%
    16:00 +36°C° 0 mm 4 m/s 673 mmHg 21%
    17:00 +36°C° 0 mm 5 m/s 674 mmHg 20%
    18:00 +35°C° 0 mm 6 m/s 674 mmHg 19%
    19:00 +34°C° 0 mm 7 m/s 674 mmHg 18%
    20:00 +33°C° 0 mm 7 m/s 675 mmHg 21%
    21:00 +30°C° 0 mm 7 m/s 675 mmHg 24%
    22:00 +28°C° 0 mm 7 m/s 675 mmHg 27%
    23:00 +27°C° 0 mm 7 m/s 675 mmHg 30%
    Mostrar mais